Weather History for Homerville, GA

Change the Weather History Date:

Sunday, December 30, 2012

  Actual Average Record
Temperature  
Mean Temperature 42 °F -  
Max Temperature 51 °F 63 °F 80 °F (1984)
Min Temperature 30 °F 41 °F 16 °F (1961)
Degree Days  
Heating Degree Days 24    
Moisture  
Dew Point 32 °F    
Average Humidity 77    
Maximum Humidity 100    
Minimum Humidity 44    
Precipitation  
Precipitation 0.00 in - - ()
Sea Level Pressure  
Sea Level Pressure 30.36 in    
Wind  
Wind Speed 7 mph (NNW)    
Max Wind Speed 15 mph    
Max Gust Speed 21 mph    
Visibility 10 miles    
Events      
Averages and records for this station are not official NWS values.
T = Trace of Precipitation, MM = Missing Value Source: NWS Daily Summary

Daily Weather History Graph

Daily Weather History Graph

Search for Another Location

Airport:

Trip Planner

Search our weather history database for the weather conditions in past years. The results will help you decide how hot, cold, wet, or windy it might be!

Date:

Astronomy

Dec. 30, 2012 Rise Set
Actual Time 7:29 AM EST 5:38 PM EST
Civil Twilight 7:02 AM EST 6:05 PM EST
Nautical Twilight 6:32 AM EST 6:35 PM EST
Astronomical Twilight 6:02 AM EST 7:05 PM EST
Moon 7:58 PM EST (12/30) 8:46 AM EST (12/30)
Length of Visible Light 11h 03m
Length of Day
10h 09m
Waning Gibbous, 95% of the Moon is Illuminated
Dec 30
Waning Gibbous
Jan 4
Last Quarter
Jan 11
New
Jan 18
First Quarter
Jan 26
Full

Hourly Weather History & Observations

Time (EST) Temp. Windchill Dew Point Humidity Pressure Visibility Wind Dir Wind Speed Gust Speed Precip Events Conditions
12:15 AM 41.0 °F 33.1 °F 32.0 °F 70% 30.23 in 10.0 mi NW 15.0 mph 20.7 mph N/A   Overcast
12:55 AM 41.0 °F 33.9 °F 32.0 °F 70% 30.24 in 10.0 mi NNW 12.7 mph 17.3 mph N/A   Mostly Cloudy
1:15 AM 39.2 °F 31.2 °F 32.0 °F 75% 30.24 in 10.0 mi NW 13.8 mph - N/A   Scattered Clouds
1:35 AM 37.4 °F 28.9 °F 32.0 °F 81% 30.26 in 10.0 mi NW 13.8 mph 17.3 mph N/A   Scattered Clouds
1:55 AM 37.4 °F 29.3 °F 32.0 °F 81% 30.26 in 10.0 mi NW 12.7 mph - N/A   Clear
2:15 AM 37.4 °F 29.8 °F 30.2 °F 75% 30.26 in 10.0 mi NNW 11.5 mph 18.4 mph N/A   Clear
2:35 AM 35.6 °F 28.0 °F 30.2 °F 81% 30.27 in 10.0 mi NW 10.4 mph - N/A   Clear
2:55 AM 35.6 °F 29.2 °F 30.2 °F 81% 30.28 in 10.0 mi NW 8.1 mph - N/A   Clear
3:15 AM 33.8 °F 26.4 °F 30.2 °F 87% 30.28 in 10.0 mi NW 9.2 mph - N/A   Clear
3:35 AM 33.8 °F 26.4 °F 30.2 °F 87% 30.29 in 10.0 mi NW 9.2 mph - N/A   Clear
3:55 AM 33.8 °F 27.0 °F 30.2 °F 87% 30.29 in 10.0 mi NW 8.1 mph - N/A   Clear
4:15 AM 33.8 °F 27.7 °F 30.2 °F 87% 30.28 in 10.0 mi NW 6.9 mph - N/A   Clear
4:35 AM 32.0 °F 24.8 °F 30.2 °F 93% 30.29 in 10.0 mi NW 8.1 mph - N/A   Clear
4:55 AM 32.0 °F 25.6 °F 30.2 °F 93% 30.29 in 10.0 mi NW 6.9 mph - N/A   Clear
5:15 AM 32.0 °F 24.2 °F 30.2 °F 93% 30.29 in 10.0 mi NW 9.2 mph - N/A   Clear
5:35 AM 32.0 °F 25.6 °F 30.2 °F 93% 30.31 in 10.0 mi NW 6.9 mph - N/A   Clear
5:55 AM 32.0 °F 26.4 °F 30.2 °F 93% 30.31 in 10.0 mi NW 5.8 mph - N/A   Clear
6:15 AM 32.0 °F 26.4 °F 30.2 °F 93% 30.31 in 10.0 mi NNW 5.8 mph - N/A   Clear
6:35 AM 32.0 °F 27.5 °F 30.2 °F 93% 30.32 in 10.0 mi NW 4.6 mph - N/A   Clear
6:55 AM 32.0 °F 26.4 °F 30.2 °F 93% 30.33 in 10.0 mi NW 5.8 mph - N/A   Clear
7:15 AM 32.0 °F 28.7 °F 30.2 °F 93% 30.34 in 10.0 mi NNW 3.5 mph - N/A   Clear
7:55 AM 32.0 °F 26.4 °F 30.2 °F 93% 30.35 in 10.0 mi NNW 5.8 mph - N/A   Clear
8:15 AM 32.0 °F 25.6 °F 30.2 °F 93% 30.36 in 10.0 mi NNW 6.9 mph - N/A   Clear
8:35 AM 33.8 °F 26.4 °F 30.2 °F 87% 30.38 in 10.0 mi NW 9.2 mph - N/A   Clear
8:55 AM 33.8 °F 27.0 °F 32.0 °F 93% 30.38 in 10.0 mi NNW 8.1 mph - N/A   Clear
9:15 AM 35.6 °F 29.9 °F 32.0 °F 87% 30.39 in 10.0 mi North 6.9 mph - N/A   Clear
9:35 AM 37.4 °F 32.8 °F 32.0 °F 81% 30.40 in 10.0 mi North 5.8 mph - N/A   Clear
9:55 AM 39.2 °F 33.6 °F 30.2 °F 70% 30.41 in 10.0 mi North 8.1 mph - N/A   Clear
10:15 AM 41.0 °F 39.0 °F 30.2 °F 65% 30.42 in 10.0 mi North 3.5 mph - N/A   Clear
10:35 AM 41.0 °F 37.1 °F 30.2 °F 65% 30.42 in 10.0 mi North 5.8 mph - N/A   Clear
10:55 AM 42.8 °F 39.3 °F 30.2 °F 61% 30.43 in 10.0 mi North 5.8 mph - N/A   Clear
11:15 AM 44.6 °F 41.4 °F 30.2 °F 57% 30.43 in 10.0 mi North 5.8 mph - N/A   Clear
11:35 AM 44.6 °F 42.2 °F 30.2 °F 57% 30.42 in 10.0 mi North 4.6 mph - N/A   Clear
11:55 AM 46.4 °F 43.5 °F 32.0 °F 57% 30.42 in 10.0 mi North 5.8 mph - N/A   Clear
12:15 PM 46.4 °F 42.9 °F 30.2 °F 53% 30.41 in 10.0 mi North 6.9 mph - N/A   Clear
12:35 PM 46.4 °F 45.2 °F 32.0 °F 57% 30.41 in 10.0 mi ENE 3.5 mph - N/A   Clear
12:55 PM 48.2 °F - 32.0 °F 54% 30.40 in 10.0 mi NW 6.9 mph - N/A   Clear
1:15 PM 50.0 °F - 32.0 °F 50% 30.39 in 10.0 mi NW 6.9 mph - N/A   Clear
1:35 PM 50.0 °F - 32.0 °F 50% 30.39 in 10.0 mi NNE 4.6 mph - N/A   Clear
1:55 PM 50.0 °F - 32.0 °F 50% 30.38 in 10.0 mi North 3.5 mph - N/A   Clear
2:15 PM 51.8 °F - 32.0 °F 47% 30.37 in 10.0 mi Calm Calm - N/A   Clear
2:35 PM 51.8 °F - 32.0 °F 47% 30.36 in 10.0 mi NNW 3.5 mph - N/A   Clear
2:55 PM 51.8 °F - 30.2 °F 44% 30.37 in 10.0 mi Calm Calm - N/A   Clear
3:15 PM 51.8 °F - 30.2 °F 44% 30.38 in 10.0 mi ESE 3.5 mph - N/A   Clear
3:35 PM 51.8 °F - 32.0 °F 47% 30.38 in 10.0 mi Calm Calm - N/A   Clear
3:55 PM 51.8 °F - 32.0 °F 47% 30.39 in 10.0 mi Calm Calm - N/A   Clear
4:15 PM 51.8 °F - 32.0 °F 47% 30.38 in 10.0 mi ENE 3.5 mph - N/A   Clear
4:35 PM 51.8 °F - 32.0 °F 47% 30.38 in 10.0 mi Calm Calm - N/A   Clear
4:55 PM 51.8 °F - 32.0 °F 47% 30.37 in 10.0 mi Calm Calm - N/A   Clear
5:15 PM 50.0 °F - 33.8 °F 54% 30.38 in 10.0 mi Calm Calm - N/A   Clear
5:35 PM 46.4 °F - 33.8 °F 62% 30.38 in 10.0 mi Calm Calm - N/A   Clear
5:55 PM 42.8 °F - 33.8 °F 70% 30.38 in 10.0 mi Calm Calm - N/A   Clear
6:15 PM 41.0 °F - 35.6 °F 81% 30.38 in 10.0 mi Calm Calm - N/A   Clear
6:35 PM 37.4 °F - 35.6 °F 93% 30.39 in 10.0 mi Calm Calm - N/A   Clear
6:55 PM 37.4 °F - 35.6 °F 93% 30.40 in 10.0 mi Calm Calm - N/A   Clear
7:15 PM 35.6 °F - 33.8 °F 93% 30.40 in 10.0 mi Calm Calm - N/A   Clear
7:35 PM 35.6 °F - 33.8 °F 93% 30.40 in 10.0 mi Calm Calm - N/A   Clear
7:55 PM 33.8 °F - 33.8 °F 100% 30.40 in 10.0 mi Calm Calm - N/A   Clear
8:15 PM 33.8 °F - 32.0 °F 93% 30.41 in 10.0 mi Calm Calm - N/A   Clear
8:35 PM 32.0 °F - 32.0 °F 100% 30.41 in 10.0 mi Calm Calm - N/A   Clear
8:55 PM 33.8 °F - 32.0 °F 93% 30.41 in 10.0 mi Calm Calm - N/A   Clear
9:15 PM 32.0 °F - 32.0 °F 100% 30.42 in 10.0 mi Calm Calm - N/A   Clear
9:35 PM 32.0 °F - 32.0 °F 100% 30.42 in 10.0 mi Calm Calm - N/A   Clear
9:55 PM 32.0 °F - 32.0 °F 100% 30.42 in 10.0 mi Calm Calm - N/A   Clear
10:15 PM 32.0 °F - 32.0 °F 100% 30.42 in 10.0 mi Calm Calm - N/A   Clear
10:35 PM 32.0 °F - 32.0 °F 100% 30.42 in 10.0 mi Calm Calm - N/A   Clear
10:55 PM 32.0 °F - 32.0 °F 100% 30.40 in 10.0 mi Calm Calm - N/A   Clear
11:15 PM 32.0 °F - 32.0 °F 100% 30.40 in 10.0 mi Calm Calm - N/A   Clear
11:35 PM 32.0 °F - 32.0 °F 100% 30.41 in 10.0 mi Calm Calm - N/A   Clear
11:55 PM 30.2 °F - 30.2 °F 100% 30.42 in 10.0 mi Calm Calm - N/A   Clear